Location: Old Broadwell Mill Observatory
(33.8015°N, 85.8137°W)
Time: 14:14:25
(UTC-05:00)

Gurwin Techsat 1B - Visible Passes

Search period start: 26 July 2014 00:00
Search period end: 05 August 2014 00:00
Orbit: 812 x 815 km, 98.5° (Epoch: 25 July)

Date Brightness Start Highest point End Pass type
(mag) Time Alt. Az. Time Alt. Az. Time Alt. Az.
26 Jul 10.0 02:51:35 10° NE 02:56:09 29° E 02:57:24 26° ESE visible
26 Jul 9.6 04:31:29 10° N 04:36:00 29° WNW 04:38:37 19° WSW visible
27 Jul 10.7 02:29:57 10° NE 02:33:21 17° E 02:34:25 16° ESE visible
27 Jul 9.0 04:08:25 10° N 04:13:30 48° WNW 04:15:38 31° SW visible
28 Jul 8.5 03:45:37 10° N 03:50:57 80° WNW 03:52:40 45° SSW visible
29 Jul 8.9 03:23:03 10° NNE 03:28:19 61° E 03:29:41 46° SSE visible
29 Jul 10.5 05:04:57 10° NNW 05:07:42 14° WNW 05:10:27 10° W visible
30 Jul 9.7 03:00:45 10° NNE 03:05:37 36° E 03:06:42 33° ESE visible
30 Jul 9.9 04:41:12 10° NNW 04:45:20 24° WNW 04:47:55 17° WSW visible
31 Jul 10.4 02:38:51 10° NE 02:42:51 22° E 02:43:43 21° ESE visible
31 Jul 9.3 04:18:00 10° N 04:22:53 38° WNW 04:24:56 28° WSW visible
01 Aug 11.0 02:17:53 10° ENE 02:20:01 12° E 02:20:44 12° E visible
01 Aug 8.6 03:55:05 10° N 04:00:21 64° WNW 04:01:57 43° SW visible
02 Aug 8.6 03:32:25 10° NNE 03:37:45 77° ESE 03:38:57 54° S visible
02 Aug 10.6 05:15:22 10° NW 05:17:00 11° WNW 05:18:37 10° W visible
03 Aug 9.3 03:10:00 10° NNE 03:15:05 45° E 03:15:58 41° SE visible
03 Aug 10.2 04:51:00 10° NNW 04:54:39 19° WNW 04:57:11 14° W visible
04 Aug 10.1 02:47:53 10° NE 02:52:20 27° E 02:52:59 26° ESE visible
04 Aug 9.5 04:27:37 10° N 04:32:14 31° WNW 04:34:12 24° WSW visible
